7 * 24
多渠道服务支持
FENGYUN 2E 是中国第二代静止轨道气象卫星“风云二号”系列中的一颗,于2006年12月发射。该卫星主要用于气象观测,提供云图、大气温度和湿度等数据,支持天气预报和灾害监测。它搭载多通道扫描辐射计,具备高分辨率和实时传输能力,运行在东经105度的赤道上空,为中国及周边地区提供重要的气象服务,提升了区域气象预警和防灾减灾能力。
中国
(CN)
| 数据来源 | 国际轨道数据 |
| 星历时间: | 2025-12-14T09:13:15+0800 1天前 查看轨道信息 |
| 半长轴: | 42490.171km |
| 偏心率: | 0.0001542 |
| 轨道倾角: | 8.845° |
| 近地点辐角 | 203.330° |
| 升交点赤经 | 55.961° |
| 平近点角 | 157.328° |
| 近地点: | 36105.484km |
| 远地点: | 36118.588km |
| 周期: | 1452.755分钟 |
| 每日圈数: | 0.99122 |